2020-061AZ (46319 NORAD) Tracking and Keplerian Element Data

This shows tracking and keplerian element data for the satellite.

Feedback or suggestion? Click here.




ElementValue
Catalog46319
Name2020-061AZ
Epoch Orbit305
Epoch Day267.40926257
Epoch Year2020
RAAN340.1955
Inclination97.5181
Eccentricity0.000328
Argument of Perigee147.6363
Mean Anonmoly212.5068
Mean Motion15.10966407
Decay Rate6.65E-06
L11 46319U 20061AZ 20267.40926257 .00000665 00000-0 43664-4 0 9998
L22 46319 97.5181 340.1955 0003280 147.6363 212.5068 15.10966407 3057

Live tracking and technical data element details for 2020-061AZ (NORAD 46319). 2020-061AZ can be tracked NOW for your location showing map with azimuth and elevation plus other details from your city location.

Track the satellite on the map from your city or location and see movement details for azimuth, elevation, latitude, longitude, range, height, and movement on the map or in text.







IsCatalogInMostPopularTable: catalog: 46319, numindb: -1

Insert: records affected: 1


GetName: 46319 2020-061AZ

Hit Count: inserted at: Thu, 24 Sep 2020 17:24:08 GMT